SCP
0 0 0 0 0 0 0 0 0 0 0 0 0 0 0 0 0 0 0 0 0 0 0 0 0 0 0 0 0 0 0 0 0 0 0 0 0 0 0 0 0 0 0 0
0 0 0 0 0 0 0 0 0 0 0 0 0 0 0 0 0 0 0 0 0 0 0 0 0 0 0 0 0 0 0 0 0 0 0 0 0 0 0 0 0 0 0 0
0 0 0 0 0 0 0 0 0 0 0 0 0 -0 -0 0 0 0 0 0 0 0 0 0 0 0 0 0 0 0 0 0 0 0 0 0 0 0 0 0 0 0 0 0
0 0 0 0 0 0 0 0 0 0 0 0 0 -0 0 0 0 0 0 0 0 0 0 0 0 0 0 0 0 0 0 0 0 0 0 0 0 0 0 0 0 0 0 0
0 0 0 0 0 0 0 0 0 0 0 0 0 0 -0 -0 0 0 0 0 0 0 0 0 0 0 0 0 0 0 0 0 0 0 0 0 0 0 0 0 0 0 0 0
0 0 0 0 0 0 0 0 0 0 0 0 0 0 -0 -0 -0 -0 0 0 0 0 0 0 0 0 0 0 0 0 0 0 0 0 0 0 0 0 0 0 0 0 0 0
0 0 0 0 0 0 0 0 0 0 0 0 0 0 0 0 0 0 0 0 0 0 0 0 0 0 0 0 0 0 0 0 0 0 0 0 0 0 0 0 0 0 0 0
0 0 0 0 0 0 0 0 0 0 0 0 0 0 0 -0 0 0 0 0 0 0 0 0 0 0 0 0 0 0 0 0 0 0 0 0 0 0 0 0 0 0 0 0
0 0 0 0 0 0 0 0 0 0 0 0 0 0 0 0 0 0 0 0 0 0 0 0 0 0 0 0 0 0 0 0 0 0 0 0 0 0 0 0 0 0 0 0
0 0 0 0 0 0 0 0 0 0 0 0 0 0 0 0 0 0 0 0 0 0 0 0 0 0 0 0 0 0 0 0 0 0 0 0 0 0 0 0 0 0 0 0
0 0 0 0 0 0 0 0 0 0 0 0 0 0 -0 0 0 0 0 0 0 0 0 0 0 0 0 0 0 0 0 0 0 0 0 0 0 0 0 0 0 0 0 0
0 0 0 0 0 0 0 0 0 0 0 0 0 0 0 0 0 -0 -0 0 -0 0 0 0 0 0 0 0 0 0 0 0 0 0 0 0 0 0 0 0 0 0 0 0
0 0 0 0 0 0 0 0 0 0 0 0 0 0 0 0 0 0 0 0 0 0 0 0 0 0 0 0 0 0 0 0 0 0 0 0 0 0 0 0 0 0 0 0
0 0 0 0 0 0 0 0 0 0 0 0 0 0 0 0 0 0 0 0 0 0 0 0 0 0 0 0 0 0 0 0 0 0 0 0 0 0 0 0 0 0 0 0
0 0 0 0 0 0 0 0 0 0 0 0 0 0 0 0 0 0 0 0 0 0 0 0 0 0 0 0 0 0 0 0 0 0 0 0 0 0 0 0 0 0 0 0
0 0 0 0 0 0 0 0 0 0 0 0 0 0 0 0 0 0 0 0 0 0 0 0 0 0 0 0 0 0 0 0 0 0 0 0 0 0 0 0 0 0 0 0
0 0 0 -0 -0 0 0 0 0 0 0 0 0 0 0 0 0 0 0 0 0 0 0 0 0 0 0 0 0 0 0 0 0 0 0 0 0 0 0 0 0 0 0 0
-0 0 0 0 -0 -0 0 0 0 0 0 0 0 0 0 0 0 0 0 0 0 0 0 0 0 0 0 0 0 0 0 0 0 0 0 0 0 0 0 0 0 0 0 0
0 0 -0 -0 0 0 0 0 0 0 0 0 0 0 0 0 0 0 0 0 0 0 0 0 0 0 0 0 0 0 0 0 0 0 0 0 0 0 0 0 0 0 0 0
0 0 0 -0 -0 -0 -0 0 0 0 0 0 0 0 0 0 0 0 0 0 0 0 0 0 0 0 0 0 0 0 0 0 0 0 0 0 0 0 0 0 0 0 0 0
0 0 0 0 0 0 0 0 -0 -0 0 0 0 0 0 0 0 0 0 0 0 0 0 0 0 0 0 0 0 0 0 0 0 0 0 0 0 0 0 0 0 0 0 0
0 0 0 0 0 0 0 0 -0 0 0 0 0 0 0 0 0 0 0 0 0 0 0 0 0 0 0 0 0 0 0 0 0 0 0 0 0 0 0 0 0 0 0 0
0 0 0 0 0 0 0 0 0 0 0 0 0 0 0 0 0 0 0 0 0 0 0 0 0 0 0 0 0 0 0 0 0 0 0 0 0 0 0 0 0 0 0 0
0 0 0 0 0 0 0 0 0 0 0 0 0 0 0 0 0 0 0 0 0 0 0 0 0 0 0 0 0 0 0 0 0 0 0 0 0 0 0 0 0 -0 -0 -0
0 0 0 0 0 0 0 0 0 0 0 0 0 0 0 0 0 0 0 0 0 0 0 0 0 0 0 0 0 0 0 0 0 0 0 0 0 0 0 0 0 0 0 0
0 0 0 0 0 0 0 0 0 0 0 0 0 0 0 0 0 0 0 0 0 0 0 0 0 0 0 0 0 0 0 0 0 0 0 0 0 0 0 0 0 0 0 0
Wind_Speed_500mb
14 8 24 22 11 4 10 7 10 5 5 7 15 23 30 42 44 48 47 48 53 59 58 57 61 59 56 55 53 51 52 49 50 51 50 48 47 43 43 37 32 30 29 31
7 28 11 13 9 5 6 7 7 8 2 5 12 23 27 32 27 54 69 75 76 65 60 56 56 62 68 62 58 57 59 60 57 56 56 55 50 46 43 41 35 30 27 27
17 6 28 17 9 14 6 10 7 8 8 2 11 32 25 19 50 62 71 70 67 66 70 71 70 68 59 57 57 55 51 55 59 56 58 60 60 53 47 41 31 25 24 25
19 17 14 8 17 14 13 15 13 6 4 9 2 18 14 6 15 15 44 60 74 81 81 77 75 74 71 68 59 53 51 48 48 47 49 54 56 56 52 47 43 38 36 34
10 14 19 14 11 15 7 13 15 9 5 7 8 8 7 3 14 12 29 57 63 61 66 78 85 80 70 60 61 58 55 51 51 49 46 48 54 57 57 56 55 52 49 45
12 7 15 12 11 27 15 11 11 8 6 12 20 13 9 10 14 11 16 45 34 39 46 49 60 56 55 62 65 68 66 63 63 57 48 45 47 49 51 53 51 49 48 47
7 11 6 13 12 4 11 15 4 2 8 17 2 15 34 5 14 13 19 30 24 23 27 27 27 39 51 48 44 45 51 53 55 49 45 42 40 43 45 47 47 45 42 41
19 9 26 13 14 11 27 17 11 15 11 8 5 18 12 13 30 36 55 54 51 40 30 31 31 32 34 34 41 40 38 44 44 38 32 31 33 36 36 36 33 33 33 34
16 18 4 9 12 24 11 23 14 9 3 3 10 13 16 15 23 33 36 31 38 37 25 24 22 18 25 28 31 30 40 40 34 29 31 31 32 31 29 28 28 28 28 29
5 6 8 18 10 23 21 19 7 1 6 10 11 10 13 12 13 23 24 31 18 14 21 18 13 15 19 26 32 37 37 35 30 29 28 28 26 25 26 25 24 25 27 29
9 5 5 12 23 34 11 17 9 12 11 9 4 13 15 25 12 13 17 28 24 13 12 16 17 18 26 32 37 39 40 38 35 30 28 29 29 29 28 26 25 24 24 25
34 4 16 23 5 16 40 33 35 16 19 18 3 19 5 14 12 19 23 22 14 10 6 9 16 24 33 40 43 44 44 43 37 32 34 36 36 34 31 27 23 24 25 28
28 14 18 7 6 3 27 33 37 41 4 28 16 26 9 13 12 22 22 25 16 13 11 11 20 31 42 47 49 50 49 45 42 41 42 43 41 39 34 30 29 29 32 37
32 19 27 38 16 11 26 39 41 42 29 42 34 58 24 4 15 23 29 26 23 19 13 14 21 33 47 54 56 56 54 51 51 50 50 49 46 41 37 37 37 38 38 40
11 24 32 41 32 12 18 46 47 44 51 34 52 52 51 35 22 24 23 28 30 25 28 37 39 48 46 58 62 63 62 60 58 59 58 55 49 46 46 44 44 43 41 41
6 9 22 48 38 45 27 24 32 49 55 51 53 45 50 52 51 47 68 69 65 70 68 60 58 54 55 52 56 70 74 70 69 68 65 61 56 56 53 50 50 47 47 44
7 6 10 38 21 22 37 52 35 27 47 48 50 66 56 39 13 36 56 58 71 77 58 52 60 65 67 69 66 58 61 75 77 76 71 69 65 63 61 57 55 56 53 53
10 11 6 18 7 32 3 19 42 48 45 42 40 40 41 49 68 70 65 68 73 69 71 75 65 65 64 64 66 64 61 65 75 81 78 73 73 71 67 64 63 61 61 62
30 9 9 12 11 16 8 13 22 24 43 50 46 45 64 86 86 49 63 72 70 65 64 65 64 66 68 67 68 66 61 55 56 63 71 76 77 72 69 67 65 64 66 66
23 21 9 14 18 21 11 8 20 8 27 21 49 50 51 66 29 33 70 60 64 64 67 66 63 62 58 57 59 60 53 47 49 54 58 67 74 75 72 69 67 67 67 70
8 8 24 28 23 13 21 45 12 12 22 46 51 60 63 36 46 66 39 37 41 43 44 42 40 39 39 37 37 39 44 43 40 40 45 53 63 65 65 65 64 62 62 67
22 17 13 14 17 20 16 11 15 18 36 52 50 72 71 83 63 56 47 41 39 35 30 28 24 21 17 15 15 17 21 22 22 26 30 37 43 47 51 52 52 57 63 71
8 22 14 19 13 18 40 45 50 42 42 43 45 44 43 43 39 41 40 42 41 35 30 26 24 19 15 14 14 15 14 14 16 18 22 26 31 36 42 48 55 61 68 77
9 10 8 5 20 34 44 48 42 46 48 46 44 43 34 32 36 36 39 41 37 33 29 24 19 18 13 8 5 6 9 12 15 19 23 27 33 40 47 54 61 68 74 80
18 11 17 10 17 12 38 35 35 41 39 31 28 23 18 22 28 32 34 31 28 25 22 19 16 13 8 6 7 9 14 18 21 25 28 33 38 45 51 56 63 69 73 76
13 13 8 9 3 5 11 20 21 28 29 24 19 21 23 30 40 36 32 25 21 16 15 13 9 6 4 6 11 16 21 26 31 34 36 40 45 50 55 61 67 67 72 74
Wind_Direction_500mb
176 177 208 194 181 121 142 183 189 245 245 197 241 254 260 258 260 257 254 252 249 249 252 247 247 249 248 246 245 247 249 247 247 247 248 250 253 258 263 267 272 277 273 271
160 231 188 171 191 177 148 173 218 284 281 192 289 262 253 254 239 244 247 251 253 252 252 249 249 246 246 249 251 252 249 247 245 249 252 252 256 259 263 266 267 268 270 268
200 192 168 169 168 194 200 199 166 222 331 263 318 280 256 241 235 243 248 253 258 256 255 253 249 245 245 246 247 251 252 251 243 248 251 246 247 252 256 259 260 260 255 254
229 218 157 155 209 165 225 172 175 194 74 244 37 283 268 278 263 224 245 250 252 252 253 254 252 250 249 249 248 246 245 242 239 240 242 240 243 248 253 255 255 252 249 256
209 169 171 194 194 163 246 167 179 168 178 337 214 276 261 10 275 269 248 247 246 249 255 256 257 257 257 252 245 246 243 244 239 236 237 242 246 250 252 253 253 253 253 253
203 194 189 195 157 177 150 93 60 64 109 262 231 189 205 188 211 250 254 257 268 265 262 267 261 259 256 252 251 248 248 247 238 240 237 238 245 248 248 249 252 252 253 255
171 198 192 152 113 88 159 134 135 240 203 236 301 191 250 238 233 230 257 272 273 279 260 269 280 259 247 248 241 239 243 236 223 222 234 241 242 242 245 248 249 251 254 257
204 203 186 179 176 168 197 173 163 201 197 263 116 229 248 239 268 261 264 268 270 269 266 286 288 268 233 234 229 232 219 206 213 215 219 230 239 241 243 244 245 247 251 258
199 231 96 207 157 155 167 217 183 104 71 43 228 289 286 257 266 265 267 276 272 265 268 279 291 246 227 217 205 198 196 195 200 212 224 232 239 237 236 235 235 240 251 265
223 270 195 191 156 205 186 142 162 175 178 251 261 272 233 278 246 242 260 263 285 267 243 263 279 230 212 194 189 189 192 201 214 222 234 235 230 227 228 234 243 253 263 273
171 196 286 132 197 191 169 191 186 183 171 197 263 257 218 234 228 243 267 263 282 294 250 262 250 212 198 197 199 202 205 213 220 235 237 229 227 228 233 241 248 258 268 277
205 256 220 210 282 235 212 200 190 197 214 234 256 255 250 226 227 210 264 269 281 286 282 266 242 222 211 209 211 214 217 220 226 231 229 228 231 235 240 243 251 260 270 275
188 213 230 220 244 281 213 215 211 222 64 214 209 255 230 195 237 246 266 282 285 277 277 289 249 234 228 224 223 223 226 230 229 228 230 231 233 232 232 235 243 250 254 257
187 222 230 235 231 155 205 212 214 210 221 233 225 254 229 184 234 253 252 245 266 282 296 312 282 254 239 233 232 233 234 234 233 234 236 236 234 234 234 237 241 243 246 251
283 248 229 247 253 260 225 215 214 219 224 222 235 242 249 231 232 237 248 261 260 269 274 281 290 284 259 244 243 245 242 239 238 239 239 240 237 235 236 238 240 239 242 244
238 251 235 247 243 234 230 215 233 230 230 237 245 249 251 253 243 244 252 259 266 265 266 273 275 267 269 266 258 255 250 246 244 243 246 245 241 241 240 237 238 239 240 244
283 272 264 272 279 275 245 222 222 240 238 236 237 241 254 260 230 241 253 253 254 261 265 265 269 266 268 274 279 276 264 251 247 247 248 246 242 241 239 236 237 238 240 246
208 275 306 274 235 254 281 213 210 218 223 238 253 264 267 264 258 254 254 254 255 259 267 267 270 272 271 273 274 275 274 264 256 253 251 248 243 241 238 237 238 239 244 251
211 180 226 255 286 302 309 212 194 198 237 230 232 238 244 255 262 253 254 250 253 258 261 260 261 261 263 264 265 267 270 263 255 253 251 246 240 238 238 238 240 244 251 258
220 224 212 254 270 268 259 279 272 232 253 228 224 235 246 255 260 261 265 257 249 247 251 254 253 258 263 263 263 265 263 255 247 244 241 238 236 236 236 238 243 249 258 267
181 201 215 236 248 241 245 274 166 205 258 257 231 228 237 239 239 255 249 234 226 235 237 241 244 250 259 261 257 249 245 241 236 234 232 228 228 232 237 242 250 260 269 277
191 184 200 220 236 242 183 161 182 231 276 282 269 237 238 244 252 244 238 211 204 204 205 207 217 218 216 220 224 223 227 225 227 229 230 232 235 243 251 261 267 274 281 284
241 210 215 205 208 225 221 241 250 258 251 260 271 271 264 263 233 208 190 182 179 181 183 181 182 176 175 188 197 206 213 227 230 236 236 240 248 257 267 274 281 287 291 294
247 200 196 101 237 236 245 249 245 258 257 258 257 265 254 256 229 195 176 169 167 163 162 165 169 168 173 190 224 239 246 258 268 272 278 280 281 282 286 290 294 296 297 299
237 153 209 248 263 311 280 269 271 251 250 248 251 256 249 212 185 181 165 163 157 156 152 155 163 164 170 202 253 276 284 289 291 293 296 296 295 295 296 298 301 302 304 306
202 208 180 234 97 276 299 291 265 246 241 241 230 197 174 170 160 167 154 142 138 137 143 146 127 91 29 357 336 328 325 321 317 316 314 314 312 310 310 308 304 307 311 314
Wind_Speed_850mb
14 8 24 22 11 4 10 7 10 5 5 7 15 23 30 42 44 48 47 48 53 59 58 57 61 59 56 55 53 51 52 49 50 51 50 48 47 43 43 37 32 30 29 31
7 28 11 13 9 5 6 7 7 8 2 5 12 23 27 32 27 54 69 75 76 65 60 56 56 62 68 62 58 57 59 60 57 56 56 55 50 46 43 41 35 30 27 27
17 6 28 17 9 14 6 10 7 8 8 2 11 32 25 19 50 62 71 70 67 66 70 71 70 68 59 57 57 55 51 55 59 56 58 60 60 53 47 41 31 25 24 25
19 17 14 8 17 14 13 15 13 6 4 9 2 18 14 6 15 15 44 60 74 81 81 77 75 74 71 68 59 53 51 48 48 47 49 54 56 56 52 47 43 38 36 34
10 14 19 14 11 15 7 13 15 9 5 7 8 8 7 3 14 12 29 57 63 61 66 78 85 80 70 60 61 58 55 51 51 49 46 48 54 57 57 56 55 52 49 45
12 7 15 12 11 27 15 11 11 8 6 12 20 13 9 10 14 11 16 45 34 39 46 49 60 56 55 62 65 68 66 63 63 57 48 45 47 49 51 53 51 49 48 47
7 11 6 13 12 4 11 15 4 2 8 17 2 15 34 5 14 13 19 30 24 23 27 27 27 39 51 48 44 45 51 53 55 49 45 42 40 43 45 47 47 45 42 41
19 9 26 13 14 11 27 17 11 15 11 8 5 18 12 13 30 36 55 54 51 40 30 31 31 32 34 34 41 40 38 44 44 38 32 31 33 36 36 36 33 33 33 34
16 18 4 9 12 24 11 23 14 9 3 3 10 13 16 15 23 33 36 31 38 37 25 24 22 18 25 28 31 30 40 40 34 29 31 31 32 31 29 28 28 28 28 29
5 6 8 18 10 23 21 19 7 1 6 10 11 10 13 12 13 23 24 31 18 14 21 18 13 15 19 26 32 37 37 35 30 29 28 28 26 25 26 25 24 25 27 29
9 5 5 12 23 34 11 17 9 12 11 9 4 13 15 25 12 13 17 28 24 13 12 16 17 18 26 32 37 39 40 38 35 30 28 29 29 29 28 26 25 24 24 25
34 4 16 23 5 16 40 33 35 16 19 18 3 19 5 14 12 19 23 22 14 10 6 9 16 24 33 40 43 44 44 43 37 32 34 36 36 34 31 27 23 24 25 28
28 14 18 7 6 3 27 33 37 41 4 28 16 26 9 13 12 22 22 25 16 13 11 11 20 31 42 47 49 50 49 45 42 41 42 43 41 39 34 30 29 29 32 37
32 19 27 38 16 11 26 39 41 42 29 42 34 58 24 4 15 23 29 26 23 19 13 14 21 33 47 54 56 56 54 51 51 50 50 49 46 41 37 37 37 38 38 40
11 24 32 41 32 12 18 46 47 44 51 34 52 52 51 35 22 24 23 28 30 25 28 37 39 48 46 58 62 63 62 60 58 59 58 55 49 46 46 44 44 43 41 41
6 9 22 48 38 45 27 24 32 49 55 51 53 45 50 52 51 47 68 69 65 70 68 60 58 54 55 52 56 70 74 70 69 68 65 61 56 56 53 50 50 47 47 44
7 6 10 38 21 22 37 52 35 27 47 48 50 66 56 39 13 36 56 58 71 77 58 52 60 65 67 69 66 58 61 75 77 76 71 69 65 63 61 57 55 56 53 53
10 11 6 18 7 32 3 19 42 48 45 42 40 40 41 49 68 70 65 68 73 69 71 75 65 65 64 64 66 64 61 65 75 81 78 73 73 71 67 64 63 61 61 62
30 9 9 12 11 16 8 13 22 24 43 50 46 45 64 86 86 49 63 72 70 65 64 65 64 66 68 67 68 66 61 55 56 63 71 76 77 72 69 67 65 64 66 66
23 21 9 14 18 21 11 8 20 8 27 21 49 50 51 66 29 33 70 60 64 64 67 66 63 62 58 57 59 60 53 47 49 54 58 67 74 75 72 69 67 67 67 70
8 8 24 28 23 13 21 45 12 12 22 46 51 60 63 36 46 66 39 37 41 43 44 42 40 39 39 37 37 39 44 43 40 40 45 53 63 65 65 65 64 62 62 67
22 17 13 14 17 20 16 11 15 18 36 52 50 72 71 83 63 56 47 41 39 35 30 28 24 21 17 15 15 17 21 22 22 26 30 37 43 47 51 52 52 57 63 71
8 22 14 19 13 18 40 45 50 42 42 43 45 44 43 43 39 41 40 42 41 35 30 26 24 19 15 14 14 15 14 14 16 18 22 26 31 36 42 48 55 61 68 77
9 10 8 5 20 34 44 48 42 46 48 46 44 43 34 32 36 36 39 41 37 33 29 24 19 18 13 8 5 6 9 12 15 19 23 27 33 40 47 54 61 68 74 80
18 11 17 10 17 12 38 35 35 41 39 31 28 23 18 22 28 32 34 31 28 25 22 19 16 13 8 6 7 9 14 18 21 25 28 33 38 45 51 56 63 69 73 76
13 13 8 9 3 5 11 20 21 28 29 24 19 21 23 30 40 36 32 25 21 16 15 13 9 6 4 6 11 16 21 26 31 34 36 40 45 50 55 61 67 67 72 74
Wind_Direction_850mb
176 177 208 194 181 121 142 183 189 245 245 197 241 254 260 258 260 257 254 252 249 249 252 247 247 249 248 246 245 247 249 247 247 247 248 250 253 258 263 267 272 277 273 271
160 231 188 171 191 177 148 173 218 284 281 192 289 262 253 254 239 244 247 251 253 252 252 249 249 246 246 249 251 252 249 247 245 249 252 252 256 259 263 266 267 268 270 268
200 192 168 169 168 194 200 199 166 222 331 263 318 280 256 241 235 243 248 253 258 256 255 253 249 245 245 246 247 251 252 251 243 248 251 246 247 252 256 259 260 260 255 254
229 218 157 155 209 165 225 172 175 194 74 244 37 283 268 278 263 224 245 250 252 252 253 254 252 250 249 249 248 246 245 242 239 240 242 240 243 248 253 255 255 252 249 256
209 169 171 194 194 163 246 167 179 168 178 337 214 276 261 10 275 269 248 247 246 249 255 256 257 257 257 252 245 246 243 244 239 236 237 242 246 250 252 253 253 253 253 253
203 194 189 195 157 177 150 93 60 64 109 262 231 189 205 188 211 250 254 257 268 265 262 267 261 259 256 252 251 248 248 247 238 240 237 238 245 248 248 249 252 252 253 255
171 198 192 152 113 88 159 134 135 240 203 236 301 191 250 238 233 230 257 272 273 279 260 269 280 259 247 248 241 239 243 236 223 222 234 241 242 242 245 248 249 251 254 257
204 203 186 179 176 168 197 173 163 201 197 263 116 229 248 239 268 261 264 268 270 269 266 286 288 268 233 234 229 232 219 206 213 215 219 230 239 241 243 244 245 247 251 258
199 231 96 207 157 155 167 217 183 104 71 43 228 289 286 257 266 265 267 276 272 265 268 279 291 246 227 217 205 198 196 195 200 212 224 232 239 237 236 235 235 240 251 265
223 270 195 191 156 205 186 142 162 175 178 251 261 272 233 278 246 242 260 263 285 267 243 263 279 230 212 194 189 189 192 201 214 222 234 235 230 227 228 234 243 253 263 273
171 196 286 132 197 191 169 191 186 183 171 197 263 257 218 234 228 243 267 263 282 294 250 262 250 212 198 197 199 202 205 213 220 235 237 229 227 228 233 241 248 258 268 277
205 256 220 210 282 235 212 200 190 197 214 234 256 255 250 226 227 210 264 269 281 286 282 266 242 222 211 209 211 214 217 220 226 231 229 228 231 235 240 243 251 260 270 275
188 213 230 220 244 281 213 215 211 222 64 214 209 255 230 195 237 246 266 282 285 277 277 289 249 234 228 224 223 223 226 230 229 228 230 231 233 232 232 235 243 250 254 257
187 222 230 235 231 155 205 212 214 210 221 233 225 254 229 184 234 253 252 245 266 282 296 312 282 254 239 233 232 233 234 234 233 234 236 236 234 234 234 237 241 243 246 251
283 248 229 247 253 260 225 215 214 219 224 222 235 242 249 231 232 237 248 261 260 269 274 281 290 284 259 244 243 245 242 239 238 239 239 240 237 235 236 238 240 239 242 244
238 251 235 247 243 234 230 215 233 230 230 237 245 249 251 253 243 244 252 259 266 265 266 273 275 267 269 266 258 255 250 246 244 243 246 245 241 241 240 237 238 239 240 244
283 272 264 272 279 275 245 222 222 240 238 236 237 241 254 260 230 241 253 253 254 261 265 265 269 266 268 274 279 276 264 251 247 247 248 246 242 241 239 236 237 238 240 246
208 275 306 274 235 254 281 213 210 218 223 238 253 264 267 264 258 254 254 254 255 259 267 267 270 272 271 273 274 275 274 264 256 253 251 248 243 241 238 237 238 239 244 251
211 180 226 255 286 302 309 212 194 198 237 230 232 238 244 255 262 253 254 250 253 258 261 260 261 261 263 264 265 267 270 263 255 253 251 246 240 238 238 238 240 244 251 258
220 224 212 254 270 268 259 279 272 232 253 228 224 235 246 255 260 261 265 257 249 247 251 254 253 258 263 263 263 265 263 255 247 244 241 238 236 236 236 238 243 249 258 267
181 201 215 236 248 241 245 274 166 205 258 257 231 228 237 239 239 255 249 234 226 235 237 241 244 250 259 261 257 249 245 241 236 234 232 228 228 232 237 242 250 260 269 277
191 184 200 220 236 242 183 161 182 231 276 282 269 237 238 244 252 244 238 211 204 204 205 207 217 218 216 220 224 223 227 225 227 229 230 232 235 243 251 261 267 274 281 284
241 210 215 205 208 225 221 241 250 258 251 260 271 271 264 263 233 208 190 182 179 181 183 181 182 176 175 188 197 206 213 227 230 236 236 240 248 257 267 274 281 287 291 294
247 200 196 101 237 236 245 249 245 258 257 258 257 265 254 256 229 195 176 169 167 163 162 165 169 168 173 190 224 239 246 258 268 272 278 280 281 282 286 290 294 296 297 299
237 153 209 248 263 311 280 269 271 251 250 248 251 256 249 212 185 181 165 163 157 156 152 155 163 164 170 202 253 276 284 289 291 293 296 296 295 295 296 298 301 302 304 306
202 208 180 234 97 276 299 291 265 246 241 241 230 197 174 170 160 167 154 142 138 137 143 146 127 91 29 357 336 328 325 321 317 316 314 314 312 310 310 308 304 307 311 314